Time,TemperatureF,DewpointF,PressureIn,WindDirection,WindDirectionDegrees,WindSpeedMPH,WindSpeedGustMPH,Humidity,HourlyPrecipIn,Conditions,Clouds,dailyrainin,SoftwareType,DateUTC
2014-04-02 00:00:00,57.1,53.9,29.72,SE,128,0.0,2.0,89,0.00,,OVC042,0.00,VWS V15.00,2014-04-02 05:00:00,
2014-04-02 00:04:00,56.8,53.6,29.72,SE,128,0.0,0.0,89,0.00,,CLR,0.00,VWS V15.00,2014-04-02 05:04:00,
2014-04-02 00:09:00,56.5,53.6,29.72,SE,128,0.0,0.0,90,0.00,,CLR,0.00,VWS V15.00,2014-04-02 05:09:00,
2014-04-02 00:14:00,56.2,53.3,29.72,SE,128,1.0,1.0,90,0.00,,CLR,0.00,VWS V15.00,2014-04-02 05:14:00,
2014-04-02 00:19:00,55.9,53.3,29.72,SE,128,0.0,1.0,91,0.00,,CLR,0.00,VWS V15.00,2014-04-02 05:19:00,
2014-04-02 00:24:00,55.8,53.5,29.72,South,173,0.0,2.0,92,0.00,,CLR,0.00,VWS V15.00,2014-04-02 05:24:00,
2014-04-02 00:29:00,55.9,53.9,29.72,South,173,1.0,2.0,93,0.00,,CLR,0.00,VWS V15.00,2014-04-02 05:29:00,
2014-04-02 00:30:00,55.8,53.8,29.72,South,173,0.0,2.0,93,0.00,,,0.00,VWS V15.00,2014-04-02 05:30:00,
2014-04-02 00:34:00,56.0,54.0,29.72,South,173,0.0,2.0,93,0.00,,CLR,0.00,VWS V15.00,2014-04-02 05:34:00,
2014-04-02 00:39:00,56.1,54.1,29.72,South,173,0.0,2.0,93,0.00,,CLR,0.00,VWS V15.00,2014-04-02 05:39:00,
2014-04-02 00:44:00,56.1,54.1,29.72,South,173,0.0,2.0,93,0.00,,CLR,0.00,VWS V15.00,2014-04-02 05:44:00,
2014-04-02 00:49:00,56.0,54.0,29.72,South,173,0.0,2.0,93,0.00,,CLR,0.00,VWS V15.00,2014-04-02 05:49:00,
2014-04-02 00:55:00,56.0,54.0,29.72,South,173,0.0,2.0,93,0.00,,CLR,0.00,VWS V15.00,2014-04-02 05:55:00,
2014-04-02 01:00:00,56.0,54.0,29.72,South,173,0.0,0.0,93,0.00,,CLR,0.00,VWS V15.00,2014-04-02 06:00:00,
2014-04-02 01:05:00,56.0,54.0,29.72,South,173,0.0,0.0,93,0.00,,CLR,0.00,VWS V15.00,2014-04-02 06:05:00,
2014-04-02 01:10:00,55.9,53.9,29.72,South,173,0.0,0.0,93,0.00,,CLR,0.00,VWS V15.00,2014-04-02 06:10:00,
2014-04-02 01:15:00,56.0,54.3,29.72,South,173,0.0,0.0,94,0.00,,CLR,0.00,VWS V15.00,2014-04-02 06:15:00,
2014-04-02 01:20:00,56.0,54.3,29.72,South,173,0.0,0.0,94,0.00,,CLR,0.00,VWS V15.00,2014-04-02 06:20:00,
2014-04-02 01:25:00,56.1,54.4,29.72,South,173,0.0,1.0,94,0.00,,CLR,0.00,VWS V15.00,2014-04-02 06:25:00,
2014-04-02 01:30:00,56.2,54.5,29.72,South,173,0.0,0.0,94,0.00,,CLR,0.00,VWS V15.00,2014-04-02 06:30:00,
2014-04-02 01:35:00,56.2,54.5,29.72,South,173,0.0,0.0,94,0.00,,CLR,0.00,VWS V15.00,2014-04-02 06:35:00,
2014-04-02 01:40:00,56.2,54.5,29.72,South,173,0.0,0.0,94,0.00,,CLR,0.00,VWS V15.00,2014-04-02 06:40:00,
2014-04-02 01:46:00,56.3,54.6,29.72,South,173,0.0,0.0,94,0.00,,CLR,0.00,VWS V15.00,2014-04-02 06:46:00,
2014-04-02 01:51:00,56.4,54.7,29.72,South,173,0.0,0.0,94,0.00,,CLR,0.00,VWS V15.00,2014-04-02 06:51:00,
2014-04-02 01:56:00,56.5,54.8,29.72,South,173,0.0,0.0,94,0.00,,CLR,0.00,VWS V15.00,2014-04-02 06:56:00,
2014-04-02 02:00:00,56.5,54.8,29.72,South,173,0.0,1.0,94,0.00,,,0.00,VWS V15.00,2014-04-02 07:00:00,
2014-04-02 02:01:00,56.6,54.9,29.72,South,173,0.0,0.0,94,0.00,,OVC120,0.00,VWS V15.00,2014-04-02 07:01:00,
2014-04-02 02:06:00,56.7,55.0,29.72,South,173,0.0,0.0,94,0.00,,OVC120,0.00,VWS V15.00,2014-04-02 07:06:00,
2014-04-02 02:11:00,56.8,55.1,29.72,South,173,0.0,0.0,94,0.00,,OVC120,0.00,VWS V15.00,2014-04-02 07:11:00,
2014-04-02 02:16:00,57.0,55.3,29.72,South,171,0.0,1.0,94,0.00,,OVC120,0.00,VWS V15.00,2014-04-02 07:16:00,
2014-04-02 02:21:00,57.2,55.2,29.72,SSE,167,0.0,2.0,93,0.00,,OVC120,0.00,VWS V15.00,2014-04-02 07:21:00,
2014-04-02 02:26:00,57.3,55.3,29.72,SSE,167,0.0,2.0,93,0.00,,OVC120,0.00,VWS V15.00,2014-04-02 07:26:00,
2014-04-02 02:30:00,57.4,55.4,29.72,SSE,167,0.0,2.0,93,0.00,,OVC042,0.00,VWS V15.00,2014-04-02 07:30:00,
2014-04-02 02:31:00,57.5,55.5,29.72,SSE,167,0.0,0.0,93,0.00,,OVC120,0.00,VWS V15.00,2014-04-02 07:31:00,
2014-04-02 02:37:00,57.6,55.6,29.72,SSE,150,0.0,2.0,93,0.00,,OVC120,0.00,VWS V15.00,2014-04-02 07:37:00,
2014-04-02 02:42:00,57.6,55.3,29.72,SSE,149,0.0,2.0,92,0.00,,OVC120,0.00,VWS V15.00,2014-04-02 07:42:00,
2014-04-02 02:47:00,57.7,55.4,29.72,SE,129,0.0,2.0,92,0.00,,OVC120,0.00,VWS V15.00,2014-04-02 07:47:00,
2014-04-02 02:52:00,57.6,55.3,29.72,SE,129,1.0,2.0,92,0.00,,OVC120,0.00,VWS V15.00,2014-04-02 07:52:00,
2014-04-02 02:57:00,57.6,55.3,29.72,SE,129,0.0,2.0,92,0.00,,OVC120,0.00,VWS V15.00,2014-04-02 07:57:00,
2014-04-02 03:00:00,57.6,55.3,29.72,SE,129,0.0,2.0,92,0.00,,OVC042,0.00,VWS V15.00,2014-04-02 08:00:00,
2014-04-02 03:02:00,57.5,55.2,29.72,SE,129,1.0,2.0,92,0.00,,OVC120,0.00,VWS V15.00,2014-04-02 08:02:00,
2014-04-02 03:07:00,57.5,55.2,29.72,ESE,120,1.0,2.0,92,0.00,,OVC120,0.00,VWS V15.00,2014-04-02 08:07:00,
2014-04-02 03:12:00,57.4,55.1,29.72,ESE,117,1.0,2.0,92,0.00,,OVC120,0.00,VWS V15.00,2014-04-02 08:12:00,
2014-04-02 03:17:00,57.4,55.1,29.72,SE,126,0.0,2.0,92,0.00,,OVC120,0.00,VWS V15.00,2014-04-02 08:17:00,
2014-04-02 03:22:00,57.3,55.0,29.72,SE,131,0.0,3.0,92,0.00,,OVC120,0.00,VWS V15.00,2014-04-02 08:22:00,
2014-04-02 03:27:00,57.3,55.0,29.72,ESE,121,0.0,3.0,92,0.00,,OVC120,0.00,VWS V15.00,2014-04-02 08:27:00,
2014-04-02 03:30:00,57.3,55.0,29.72,ESE,121,3.0,3.0,92,0.00,,OVC042,0.00,VWS V15.00,2014-04-02 08:30:00,
2014-04-02 03:32:00,57.3,55.0,29.72,SE,132,3.0,4.0,92,0.00,,OVC120,0.00,VWS V15.00,2014-04-02 08:32:00,
2014-04-02 03:38:00,57.3,55.0,29.72,SE,144,1.0,5.0,92,0.00,,OVC120,0.00,VWS V15.00,2014-04-02 08:38:00,
2014-04-02 03:43:00,57.3,55.0,29.72,ESE,123,0.0,5.0,92,0.00,,OVC120,0.00,VWS V15.00,2014-04-02 08:43:00,
2014-04-02 03:48:00,57.3,55.0,29.72,ESE,119,2.0,5.0,92,0.00,,OVC120,0.00,VWS V15.00,2014-04-02 08:48:00,
2014-04-02 03:53:00,57.3,55.0,29.72,SE,142,1.0,5.0,92,0.00,,OVC120,0.00,VWS V15.00,2014-04-02 08:53:00,
2014-04-02 03:58:00,57.3,55.0,29.72,SE,136,0.0,5.0,92,0.00,,OVC120,0.00,VWS V15.00,2014-04-02 08:58:00,
2014-04-02 04:00:00,57.3,55.0,29.72,SE,130,2.0,5.0,92,0.00,,,0.00,VWS V15.00,2014-04-02 09:00:00,
2014-04-02 04:03:00,57.3,55.0,29.72,SE,131,2.0,4.0,92,0.00,,OVC120,0.00,VWS V15.00,2014-04-02 09:03:00,
2014-04-02 04:08:00,57.4,55.1,29.72,ESE,120,2.0,4.0,92,0.00,,OVC120,0.00,VWS V15.00,2014-04-02 09:08:00,
2014-04-02 04:13:00,57.5,55.2,29.72,SE,134,1.0,4.0,92,0.00,,OVC120,0.00,VWS V15.00,2014-04-02 09:13:00,
2014-04-02 04:18:00,57.5,55.2,29.72,South,178,0.0,4.0,92,0.00,,OVC120,0.00,VWS V15.00,2014-04-02 09:18:00,
2014-04-02 04:23:00,57.6,55.3,29.72,SSE,148,0.0,4.0,92,0.00,,OVC120,0.00,VWS V15.00,2014-04-02 09:23:00,
2014-04-02 04:28:00,57.7,55.7,29.72,SSE,148,0.0,4.0,93,0.00,,OVC120,0.00,VWS V15.00,2014-04-02 09:28:00,
2014-04-02 04:30:00,57.7,55.7,29.72,SSE,148,0.0,4.0,93,0.00,,,0.00,VWS V15.00,2014-04-02 09:30:00,
2014-04-02 04:33:00,57.7,55.7,29.72,ESE,123,0.0,2.0,93,0.00,,OVC120,0.00,VWS V15.00,2014-04-02 09:33:00,
2014-04-02 04:39:00,57.8,55.5,29.72,ESE,123,0.0,2.0,92,0.00,,OVC120,0.00,VWS V15.00,2014-04-02 09:39:00,
2014-04-02 04:44:00,57.8,55.5,29.72,ESE,123,0.0,2.0,92,0.00,,OVC120,0.00,VWS V15.00,2014-04-02 09:44:00,
2014-04-02 04:49:00,57.9,55.6,29.72,ESE,123,0.0,2.0,92,0.00,,OVC120,0.00,VWS V15.00,2014-04-02 09:49:00,
2014-04-02 04:54:00,57.9,55.6,29.72,ESE,107,0.0,2.0,92,0.00,,OVC120,0.00,VWS V15.00,2014-04-02 09:54:00,
2014-04-02 04:59:00,58.0,55.7,29.72,ESE,107,0.0,0.0,92,0.00,,OVC120,0.00,VWS V15.00,2014-04-02 09:59:00,
2014-04-02 05:00:00,57.9,55.6,29.72,ESE,107,0.0,2.0,92,0.00,,,0.00,VWS V15.00,2014-04-02 10:00:00,
2014-04-02 05:04:00,58.0,55.7,29.72,ESE,107,0.0,0.0,92,0.00,,OVC120,0.00,VWS V15.00,2014-04-02 10:04:00,
2014-04-02 05:09:00,58.0,55.7,29.72,ESE,107,0.0,2.0,92,0.00,,OVC120,0.00,VWS V15.00,2014-04-02 10:09:00,
2014-04-02 05:14:00,58.0,55.7,29.72,ESE,107,0.0,2.0,92,0.00,,OVC120,0.00,VWS V15.00,2014-04-02 10:14:00,
2014-04-02 05:19:00,58.1,55.8,29.72,ESE,107,0.0,2.0,92,0.00,,OVC120,0.00,VWS V15.00,2014-04-02 10:19:00,
2014-04-02 05:24:00,58.1,55.8,29.72,ESE,107,0.0,2.0,92,0.00,,OVC120,0.00,VWS V15.00,2014-04-02 10:24:00,
2014-04-02 05:29:00,58.1,55.8,29.72,ESE,107,0.0,0.0,92,0.00,,OVC120,0.00,VWS V15.00,2014-04-02 10:29:00,
2014-04-02 05:30:00,58.1,55.8,29.72,ESE,107,0.0,2.0,92,0.00,,OVC042,0.00,VWS V15.00,2014-04-02 10:30:00,
2014-04-02 05:34:00,58.1,55.8,29.71,ESE,107,0.0,0.0,92,0.00,,OVC120,0.00,VWS V15.00,2014-04-02 10:34:00,
2014-04-02 05:39:00,58.1,55.8,29.71,ESE,107,0.0,0.0,92,0.00,,OVC120,0.00,VWS V15.00,2014-04-02 10:39:00,
2014-04-02 05:44:00,58.1,55.8,29.71,ESE,107,0.0,0.0,92,0.00,,OVC120,0.00,VWS V15.00,2014-04-02 10:44:00,
2014-04-02 05:50:00,58.1,55.8,29.71,ESE,107,0.0,0.0,92,0.00,,OVC120,0.00,VWS V15.00,2014-04-02 10:50:00,
2014-04-02 05:55:00,58.0,55.7,29.71,ESE,107,0.0,1.0,92,0.00,,OVC120,0.00,VWS V15.00,2014-04-02 10:55:00,
2014-04-02 06:00:00,58.0,55.7,29.70,ESE,107,1.0,2.0,92,0.00,,OVC120,0.00,VWS V15.00,2014-04-02 11:00:00,
2014-04-02 06:05:00,58.0,55.7,29.70,ESE,107,1.0,2.0,92,0.00,,OVC120,0.00,VWS V15.00,2014-04-02 11:05:00,
2014-04-02 06:10:00,58.1,55.8,29.70,ESE,107,0.0,2.0,92,0.00,,OVC120,0.00,VWS V15.00,2014-04-02 11:10:00,
2014-04-02 06:15:00,58.1,55.8,29.70,ESE,107,1.0,2.0,92,0.00,,OVC120,0.00,VWS V15.00,2014-04-02 11:15:00,
2014-04-02 06:20:00,58.2,55.9,29.70,ESE,107,0.0,2.0,92,0.00,,OVC120,0.00,VWS V15.00,2014-04-02 11:20:00,
2014-04-02 06:25:00,58.3,56.0,29.70,ESE,108,0.0,2.0,92,0.00,,OVC120,0.00,VWS V15.00,2014-04-02 11:25:00,
2014-04-02 06:30:00,58.3,56.3,29.70,SE,126,0.0,3.0,93,0.00,,OVC120,0.00,VWS V15.00,2014-04-02 11:30:00,
2014-04-02 06:35:00,58.4,56.1,29.70,ESE,117,1.0,3.0,92,0.00,,OVC120,0.00,VWS V15.00,2014-04-02 11:35:00,
2014-04-02 06:40:00,58.5,56.2,29.70,ESE,111,0.0,3.0,92,0.00,,OVC120,0.00,VWS V15.00,2014-04-02 11:40:00,
2014-04-02 06:45:00,58.6,56.3,29.70,SE,125,1.0,3.0,92,0.00,,OVC120,0.00,VWS V15.00,2014-04-02 11:45:00,
2014-04-02 06:51:00,58.6,56.3,29.70,ESE,121,3.0,3.0,92,0.00,,OVC120,0.00,VWS V15.00,2014-04-02 11:51:00,
2014-04-02 06:56:00,58.7,56.4,29.70,SE,129,1.0,5.0,92,0.00,,OVC120,0.00,VWS V15.00,2014-04-02 11:56:00,
2014-04-02 07:00:00,58.7,56.4,29.70,ESE,121,0.0,5.0,92,0.00,,OVC042,0.00,VWS V15.00,2014-04-02 12:00:00,
2014-04-02 07:01:00,58.8,56.5,29.70,ESE,115,0.0,4.0,92,0.00,,OVC120,0.00,VWS V15.00,2014-04-02 12:01:00,
2014-04-02 07:06:00,58.9,56.9,29.70,ESE,104,1.0,4.0,93,0.00,,OVC120,0.00,VWS V15.00,2014-04-02 12:06:00,
2014-04-02 07:11:00,58.9,56.9,29.70,SE,128,0.0,4.0,93,0.00,,OVC120,0.00,VWS V15.00,2014-04-02 12:11:00,
2014-04-02 07:16:00,58.9,56.9,29.70,East,96,1.0,5.0,93,0.00,,OVC120,0.00,VWS V15.00,2014-04-02 12:16:00,
2014-04-02 07:21:00,59.0,57.0,29.70,ESE,114,2.0,5.0,93,0.00,,OVC120,0.00,VWS V15.00,2014-04-02 12:21:00,
2014-04-02 07:26:00,59.0,57.0,29.70,ESE,123,1.0,5.0,93,0.00,,OVC120,0.00,VWS V15.00,2014-04-02 12:26:00,
2014-04-02 07:30:00,59.0,57.0,29.70,East,101,0.0,5.0,93,0.00,,OVC042,0.00,VWS V15.00,2014-04-02 12:30:00,
2014-04-02 07:31:00,59.0,57.0,29.70,ESE,119,0.0,2.0,93,0.00,,OVC120,0.00,VWS V15.00,2014-04-02 12:31:00,
2014-04-02 07:36:00,59.1,57.1,29.70,ESE,111,3.0,7.0,93,0.00,,OVC120,0.00,VWS V15.00,2014-04-02 12:36:00,
2014-04-02 07:41:00,59.2,57.2,29.70,SE,127,1.0,7.0,93,0.00,,OVC120,0.00,VWS V15.00,2014-04-02 12:41:00,
2014-04-02 07:46:00,59.4,57.4,29.70,SE,135,0.0,7.0,93,0.00,,OVC120,0.00,VWS V15.00,2014-04-02 12:46:00,
2014-04-02 07:51:00,59.5,57.5,29.70,ESE,110,1.0,7.0,93,0.00,,OVC120,0.00,VWS V15.00,2014-04-02 12:51:00,
2014-04-02 07:57:00,59.6,57.6,29.70,SE,138,4.0,7.0,93,0.00,,OVC120,0.00,VWS V15.00,2014-04-02 12:57:00,
2014-04-02 08:00:00,59.7,57.7,29.70,SE,131,3.0,7.0,93,0.00,,OVC042,0.00,VWS V15.00,2014-04-02 13:00:00,
2014-04-02 08:02:00,59.8,57.8,29.70,ESE,115,3.0,4.0,93,0.00,,OVC120,0.00,VWS V15.00,2014-04-02 13:02:00,
2014-04-02 08:07:00,59.9,57.9,29.70,ESE,123,2.0,4.0,93,0.00,,OVC120,0.00,VWS V15.00,2014-04-02 13:07:00,
2014-04-02 08:12:00,60.0,58.0,29.70,SE,135,1.0,4.0,93,0.00,,OVC120,0.00,VWS V15.00,2014-04-02 13:12:00,
2014-04-02 08:17:00,60.1,58.1,29.70,ESE,115,1.0,4.0,93,0.00,,OVC120,0.00,VWS V15.00,2014-04-02 13:17:00,
2014-04-02 08:22:00,60.3,58.3,29.70,ESE,118,1.0,5.0,93,0.00,,OVC120,0.00,VWS V15.00,2014-04-02 13:22:00,
2014-04-02 08:27:00,60.4,58.4,29.70,SE,137,0.0,5.0,93,0.00,,OVC120,0.00,VWS V15.00,2014-04-02 13:27:00,
2014-04-02 08:30:00,60.5,58.5,29.70,ESE,110,1.0,5.0,93,0.00,,,0.00,VWS V15.00,2014-04-02 13:30:00,
2014-04-02 08:32:00,60.6,58.6,29.70,SE,130,1.0,3.0,93,0.00,,OVC120,0.00,VWS V15.00,2014-04-02 13:32:00,
2014-04-02 08:37:00,61.0,59.0,29.70,SE,128,2.0,3.0,93,0.00,,OVC120,0.00,VWS V15.00,2014-04-02 13:37:00,
2014-04-02 08:42:00,61.3,59.0,29.70,SE,124,1.0,5.0,92,0.00,,OVC120,0.00,VWS V15.00,2014-04-02 13:42:00,
2014-04-02 08:47:00,61.5,59.2,29.70,SE,138,2.0,5.0,92,0.00,,OVC120,0.00,VWS V15.00,2014-04-02 13:47:00,
2014-04-02 08:52:00,61.7,59.4,29.70,SE,133,2.0,5.0,92,0.00,,OVC120,0.00,VWS V15.00,2014-04-02 13:52:00,
2014-04-02 08:57:00,61.8,59.2,29.70,ESE,121,1.0,5.0,91,0.00,,OVC120,0.00,VWS V15.00,2014-04-02 13:57:00,
2014-04-02 09:00:00,61.8,59.2,29.70,ESE,123,3.0,5.0,91,0.00,,,0.00,VWS V15.00,2014-04-02 14:00:00,
2014-04-02 09:03:00,62.0,59.7,29.70,ESE,122,2.0,5.0,92,0.00,,OVC120,0.00,VWS V15.00,2014-04-02 14:03:00,
2014-04-02 09:08:00,62.4,60.0,29.70,South,177,4.0,5.0,92,0.00,,OVC120,0.00,VWS V15.00,2014-04-02 14:08:00,
2014-04-02 09:13:00,62.9,60.2,29.70,SE,142,2.0,7.0,91,0.00,,OVC120,0.00,VWS V15.00,2014-04-02 14:13:00,
2014-04-02 09:18:00,63.1,60.1,29.70,ESE,121,3.0,9.0,90,0.00,,OVC120,0.00,VWS V15.00,2014-04-02 14:18:00,
2014-04-02 09:23:00,63.4,60.4,29.70,SSE,154,1.0,9.0,90,0.00,,OVC120,0.00,VWS V15.00,2014-04-02 14:23:00,
2014-04-02 09:28:00,63.8,60.8,29.70,SSE,152,4.0,10.0,90,0.00,,OVC120,0.00,VWS V15.00,2014-04-02 14:28:00,
2014-04-02 09:30:00,63.8,60.5,29.70,SSE,150,2.0,10.0,89,0.00,,,0.00,VWS V15.00,2014-04-02 14:30:00,
2014-04-02 09:33:00,64.1,60.8,29.70,ESE,122,3.0,7.0,89,0.00,,OVC120,0.00,VWS V15.00,2014-04-02 14:33:00,
2014-04-02 09:38:00,64.5,60.9,29.70,SE,130,4.0,7.0,88,0.00,,OVC120,0.00,VWS V15.00,2014-04-02 14:38:00,
2014-04-02 09:43:00,64.6,61.0,29.70,SSE,158,5.0,7.0,88,0.00,,OVC120,0.00,VWS V15.00,2014-04-02 14:43:00,
2014-04-02 09:48:00,64.8,61.2,29.70,SE,134,4.0,7.0,88,0.00,,OVC120,0.00,VWS V15.00,2014-04-02 14:48:00,
2014-04-02 09:53:00,65.3,61.7,29.70,SE,125,5.0,7.0,88,0.00,,OVC120,0.00,VWS V15.00,2014-04-02 14:53:00,
2014-04-02 09:58:00,66.3,62.0,29.70,SE,145,6.0,6.0,86,0.00,,OVC120,0.00,VWS V15.00,2014-04-02 14:58:00,
2014-04-02 10:00:00,66.3,62.0,29.70,SSE,148,6.0,10.0,86,0.00,,OVC042,0.00,VWS V15.00,2014-04-02 15:00:00,
2014-04-02 10:03:00,66.8,62.2,29.70,SE,142,8.0,9.0,85,0.00,,OVC120,0.00,VWS V15.00,2014-04-02 15:03:00,
2014-04-02 10:09:00,67.2,62.5,29.70,SE,142,5.0,10.0,85,0.00,,OVC120,0.00,VWS V15.00,2014-04-02 15:09:00,
2014-04-02 10:14:00,67.6,62.6,29.70,SSE,155,4.0,10.0,84,0.00,,OVC120,0.00,VWS V15.00,2014-04-02 15:14:00,
2014-04-02 10:19:00,68.0,62.3,29.70,SE,142,10.0,11.0,82,0.00,,OVC120,0.00,VWS V15.00,2014-04-02 15:19:00,
2014-04-02 10:24:00,68.2,62.5,29.70,SSE,162,6.0,11.0,82,0.00,,OVC120,0.00,VWS V15.00,2014-04-02 15:24:00,
2014-04-02 10:29:00,68.2,62.5,29.70,SSE,148,7.0,8.0,82,0.00,,OVC120,0.00,VWS V15.00,2014-04-02 15:29:00,
2014-04-02 10:30:00,68.2,62.5,29.70,ESE,123,8.0,11.0,82,0.00,,OVC042,0.00,VWS V15.00,2014-04-02 15:30:00,
2014-04-02 10:34:00,68.1,62.4,29.70,SE,142,3.0,10.0,82,0.00,,OVC120,0.00,VWS V15.00,2014-04-02 15:34:00,
2014-04-02 10:39:00,68.0,62.3,29.70,ESE,123,8.0,12.0,82,0.00,,OVC120,0.00,VWS V15.00,2014-04-02 15:39:00,
2014-04-02 10:44:00,67.9,62.2,29.70,South,173,5.0,12.0,82,0.00,,OVC120,0.00,VWS V15.00,2014-04-02 15:44:00,
2014-04-02 10:49:00,67.7,62.0,29.70,SE,125,3.0,12.0,82,0.00,,OVC120,0.00,VWS V15.00,2014-04-02 15:49:00,
2014-04-02 10:54:00,67.7,62.4,29.70,SE,132,3.0,12.0,83,0.00,,OVC120,0.00,VWS V15.00,2014-04-02 15:54:00,
2014-04-02 10:59:00,67.9,62.2,29.70,SE,139,5.0,9.0,82,0.00,,OVC120,0.00,VWS V15.00,2014-04-02 15:59:00,
2014-04-02 11:00:00,67.9,62.2,29.70,SE,136,6.0,12.0,82,0.00,,,0.00,VWS V15.00,2014-04-02 16:00:00,
2014-04-02 11:04:00,68.0,62.3,29.70,SE,139,6.0,9.0,82,0.00,,OVC120,0.00,VWS V15.00,2014-04-02 16:04:00,
2014-04-02 11:09:00,68.2,62.5,29.70,SE,143,6.0,10.0,82,0.00,,OVC120,0.00,VWS V15.00,2014-04-02 16:09:00,
2014-04-02 11:14:00,68.2,62.5,29.70,SE,132,4.0,10.0,82,0.00,,OVC120,0.00,VWS V15.00,2014-04-02 16:14:00,
2014-04-02 11:20:00,68.4,62.7,29.70,SSE,159,4.0,10.0,82,0.00,,OVC120,0.00,VWS V15.00,2014-04-02 16:20:00,
2014-04-02 11:25:00,68.3,62.6,29.70,SE,131,5.0,10.0,82,0.00,,OVC120,0.00,VWS V15.00,2014-04-02 16:25:00,
2014-04-02 11:30:00,68.2,62.5,29.70,SE,142,3.0,8.0,82,0.00,,OVC120,0.00,VWS V15.00,2014-04-02 16:30:00,
2014-04-02 11:35:00,68.3,62.9,29.70,SSE,157,4.0,8.0,83,0.00,,OVC120,0.00,VWS V15.00,2014-04-02 16:35:00,
2014-04-02 11:40:00,68.4,63.0,29.70,South,182,5.0,9.0,83,0.00,,OVC120,0.00,VWS V15.00,2014-04-02 16:40:00,
2014-04-02 11:45:00,68.7,63.0,29.70,SSE,165,1.0,9.0,82,0.00,,OVC120,0.00,VWS V15.00,2014-04-02 16:45:00,
2014-04-02 11:50:00,69.4,63.3,29.70,South,171,5.0,11.0,81,0.00,,OVC120,0.00,VWS V15.00,2014-04-02 16:50:00,
2014-04-02 11:55:00,69.9,63.8,29.70,South,188,7.0,13.0,81,0.00,,OVC120,0.00,VWS V15.00,2014-04-02 16:55:00,
2014-04-02 12:00:00,70.1,63.7,29.70,South,188,7.0,13.0,80,0.00,,OVC120,0.00,VWS V15.00,2014-04-02 17:00:00,
2014-04-02 12:05:00,70.4,63.6,29.70,South,179,2.0,13.0,79,0.00,,OVC120,0.00,VWS V15.00,2014-04-02 17:05:00,
2014-04-02 12:10:00,70.6,64.1,29.70,SW,215,0.0,13.0,80,0.00,,OVC120,0.00,VWS V15.00,2014-04-02 17:10:00,
2014-04-02 12:15:00,71.3,64.5,29.70,South,191,7.0,13.0,79,0.00,,OVC120,0.00,VWS V15.00,2014-04-02 17:15:00,
2014-04-02 12:20:00,72.2,64.2,29.70,SSW,206,4.0,13.0,76,0.00,,OVC120,0.00,VWS V15.00,2014-04-02 17:20:00,
2014-04-02 12:25:00,72.5,64.1,29.70,South,173,6.0,13.0,75,0.00,,OVC120,0.00,VWS V15.00,2014-04-02 17:25:00,
2014-04-02 12:30:00,72.6,64.2,29.70,SSE,152,5.0,13.0,75,0.00,,OVC042,0.00,VWS V15.00,2014-04-02 17:30:00,
2014-04-02 12:31:00,72.6,64.2,29.70,South,191,8.0,9.0,75,0.00,,OVC120,0.00,VWS V15.00,2014-04-02 17:31:00,
2014-04-02 12:36:00,73.1,64.3,29.70,South,171,8.0,14.0,74,0.00,,OVC120,0.00,VWS V15.00,2014-04-02 17:36:00,
2014-04-02 12:41:00,73.6,64.8,29.70,SSW,201,8.0,14.0,74,0.00,,OVC120,0.00,VWS V15.00,2014-04-02 17:41:00,
2014-04-02 12:46:00,73.9,64.7,29.70,South,189,10.0,14.0,73,0.00,,OVC120,0.00,VWS V15.00,2014-04-02 17:46:00,
2014-04-02 12:51:00,74.0,64.8,29.70,SSW,208,7.0,14.0,73,0.00,,OVC120,0.00,VWS V15.00,2014-04-02 17:51:00,
2014-04-02 12:56:00,74.4,65.2,29.70,South,183,12.0,14.0,73,0.00,,OVC120,0.00,VWS V15.00,2014-04-02 17:56:00,
2014-04-02 13:00:00,74.6,65.4,29.70,SE,144,8.0,16.0,73,0.00,,,0.00,VWS V15.00,2014-04-02 18:00:00,
2014-04-02 13:01:00,74.7,64.7,29.70,SSW,211,10.0,14.0,71,0.00,,OVC120,0.00,VWS V15.00,2014-04-02 18:01:00,
2014-04-02 13:06:00,74.6,65.0,29.70,SE,146,8.0,14.0,72,0.00,,OVC120,0.00,VWS V15.00,2014-04-02 18:06:00,
2014-04-02 13:11:00,74.6,64.6,29.70,SSE,155,5.0,14.0,71,0.00,,OVC120,0.00,VWS V15.00,2014-04-02 18:11:00,
2014-04-02 13:16:00,74.5,64.9,29.70,South,177,4.0,14.0,72,0.00,,OVC120,0.00,VWS V15.00,2014-04-02 18:16:00,
2014-04-02 13:22:00,74.2,64.6,29.70,SSW,199,7.0,14.0,72,0.00,,OVC120,0.00,VWS V15.00,2014-04-02 18:22:00,
2014-04-02 13:27:00,74.4,64.8,29.70,South,176,5.0,14.0,72,0.00,,OVC120,0.00,VWS V15.00,2014-04-02 18:27:00,
2014-04-02 13:30:00,74.5,64.9,29.70,South,182,3.0,14.0,72,0.00,,,0.00,VWS V15.00,2014-04-02 18:30:00,
2014-04-02 13:32:00,74.6,65.0,29.70,South,179,11.0,11.0,72,0.00,,OVC120,0.00,VWS V15.00,2014-04-02 18:32:00,
2014-04-02 13:37:00,74.3,64.7,29.70,SSW,198,5.0,13.0,72,0.00,,OVC120,0.00,VWS V15.00,2014-04-02 18:37:00,
2014-04-02 13:42:00,74.3,64.7,29.70,South,173,11.0,13.0,72,0.00,,OVC120,0.00,VWS V15.00,2014-04-02 18:42:00,
2014-04-02 13:47:00,73.9,64.7,29.70,South,183,10.0,14.0,73,0.00,,OVC120,0.00,VWS V15.00,2014-04-02 18:47:00,
2014-04-02 13:52:00,73.9,64.3,29.70,SSW,210,6.0,14.0,72,0.00,,OVC120,0.00,VWS V15.00,2014-04-02 18:52:00,
2014-04-02 13:57:00,73.4,64.2,29.70,SE,144,4.0,14.0,73,0.00,,OVC120,0.00,VWS V15.00,2014-04-02 18:57:00,
2014-04-02 14:00:00,73.3,64.5,29.70,SE,146,7.0,14.0,74,0.00,,,0.00,VWS V15.00,2014-04-02 19:00:00,
2014-04-02 14:02:00,73.2,64.0,29.70,SSE,155,4.0,11.0,73,0.00,,OVC120,0.00,VWS V15.00,2014-04-02 19:02:00,
2014-04-02 14:07:00,72.8,64.0,29.70,South,188,8.0,14.0,74,0.00,,OVC120,0.00,VWS V15.00,2014-04-02 19:07:00,
2014-04-02 14:12:00,72.7,64.3,29.70,SSE,163,4.0,14.0,75,0.00,,OVC120,0.00,VWS V15.00,2014-04-02 19:12:00,
2014-04-02 14:17:00,73.0,65.0,29.70,SSW,205,7.0,14.0,76,0.00,,OVC120,0.00,VWS V15.00,2014-04-02 19:17:00,
2014-04-02 14:22:00,73.7,64.9,29.70,South,184,6.0,14.0,74,0.00,,OVC120,0.00,VWS V15.00,2014-04-02 19:22:00,
2014-04-02 14:27:00,73.8,65.0,29.70,SSW,194,7.0,14.0,74,0.00,,OVC120,0.00,VWS V15.00,2014-04-02 19:27:00,
2014-04-02 14:30:00,73.7,64.5,29.70,South,176,7.0,14.0,73,0.00,,,0.00,VWS V15.00,2014-04-02 19:30:00,
2014-04-02 14:33:00,73.7,64.5,29.70,SSE,148,4.0,13.0,73,0.00,,OVC120,0.00,VWS V15.00,2014-04-02 19:33:00,
2014-04-02 14:38:00,74.1,65.3,29.70,SE,145,5.0,13.0,74,0.00,,OVC120,0.00,VWS V15.00,2014-04-02 19:38:00,
2014-04-02 14:43:00,74.7,65.1,29.70,South,171,6.0,13.0,72,0.00,,OVC120,0.00,VWS V15.00,2014-04-02 19:43:00,
2014-04-02 14:48:00,74.4,64.8,29.70,SSE,161,5.0,14.0,72,0.00,,OVC120,0.00,VWS V15.00,2014-04-02 19:48:00,
2014-04-02 14:53:00,73.7,64.5,29.70,SSE,155,6.0,14.0,73,0.00,,OVC120,0.00,VWS V15.00,2014-04-02 19:53:00,
2014-04-02 14:58:00,72.9,64.1,29.70,SSE,150,5.0,14.0,74,0.00,,OVC120,0.00,VWS V15.00,2014-04-02 19:58:00,
2014-04-02 15:00:00,72.8,64.0,29.70,South,175,5.0,14.0,74,0.00,,OVC042,0.00,VWS V15.00,2014-04-02 20:00:00,
2014-04-02 15:03:00,72.2,63.8,29.70,SSW,205,6.0,11.0,75,0.00,,OVC120,0.00,VWS V15.00,2014-04-02 20:03:00,
2014-04-02 15:08:00,71.6,64.0,29.70,South,184,8.0,11.0,77,0.00,,OVC120,0.00,VWS V15.00,2014-04-02 20:08:00,
2014-04-02 15:13:00,71.3,63.7,29.70,SSE,149,5.0,11.0,77,0.00,,OVC120,0.00,VWS V15.00,2014-04-02 20:13:00,
2014-04-02 15:18:00,71.4,64.2,29.70,SW,226,4.0,11.0,78,0.00,,OVC120,0.00,VWS V15.00,2014-04-02 20:18:00,
2014-04-02 15:23:00,71.6,64.4,29.70,SSW,194,4.0,11.0,78,0.00,,OVC120,0.00,VWS V15.00,2014-04-02 20:23:00,
2014-04-02 15:28:00,72.1,64.9,29.70,South,175,3.0,5.0,78,0.00,,OVC120,0.00,VWS V15.00,2014-04-02 20:28:00,
2014-04-02 15:30:00,72.1,64.9,29.70,SSW,194,5.0,11.0,78,0.00,,OVC042,0.00,VWS V15.00,2014-04-02 20:30:00,
2014-04-02 15:33:00,72.1,64.1,29.70,South,175,6.0,12.0,76,0.00,,OVC120,0.00,VWS V15.00,2014-04-02 20:33:00,
2014-04-02 15:38:00,71.2,63.6,29.70,South,182,7.0,14.0,77,0.00,,OVC120,0.00,VWS V15.00,2014-04-02 20:38:00,
2014-04-02 15:44:00,70.6,63.4,29.70,SSE,160,10.0,14.0,78,0.00,,OVC120,0.00,VWS V15.00,2014-04-02 20:44:00,
2014-04-02 15:49:00,70.2,63.8,29.70,SSW,206,7.0,14.0,80,0.00,,OVC120,0.00,VWS V15.00,2014-04-02 20:49:00,
2014-04-02 15:54:00,70.2,63.8,29.70,SSE,158,3.0,14.0,80,0.00,,OVC120,0.00,VWS V15.00,2014-04-02 20:54:00,
2014-04-02 15:59:00,70.1,64.0,29.70,SSE,166,1.0,5.0,81,0.00,,OVC120,0.00,VWS V15.00,2014-04-02 20:59:00,
2014-04-02 16:00:00,70.1,64.0,29.70,South,188,5.0,14.0,81,0.00,,,0.00,VWS V15.00,2014-04-02 21:00:00,
2014-04-02 16:04:00,70.2,63.8,29.70,SSW,192,5.0,8.0,80,0.00,,OVC120,0.00,VWS V15.00,2014-04-02 21:04:00,
2014-04-02 16:09:00,69.9,63.5,29.70,South,184,5.0,11.0,80,0.00,,OVC120,0.00,VWS V15.00,2014-04-02 21:09:00,
2014-04-02 16:14:00,69.7,63.6,29.70,South,190,7.0,11.0,81,0.00,,OVC120,0.00,VWS V15.00,2014-04-02 21:14:00,
2014-04-02 16:19:00,69.4,63.3,29.70,South,172,4.0,15.0,81,0.00,,OVC120,0.00,VWS V15.00,2014-04-02 21:19:00,
2014-04-02 16:24:00,69.2,63.5,29.70,SSE,167,3.0,15.0,82,0.00,,OVC120,0.00,VWS V15.00,2014-04-02 21:24:00,
2014-04-02 16:29:00,69.0,63.6,29.70,SSE,167,4.0,7.0,83,0.00,,OVC120,0.00,VWS V15.00,2014-04-02 21:29:00,
2014-04-02 16:30:00,69.1,63.7,29.70,SE,135,6.0,15.0,83,0.00,,OVC042,0.00,VWS V15.00,2014-04-02 21:30:00,
2014-04-02 16:34:00,68.8,63.4,29.70,SSE,151,6.0,7.0,83,0.00,,OVC120,0.00,VWS V15.00,2014-04-02 21:34:00,
2014-04-02 16:39:00,68.6,63.6,29.70,SE,138,5.0,8.0,84,0.00,,OVC120,0.00,VWS V15.00,2014-04-02 21:39:00,
2014-04-02 16:44:00,68.2,63.9,29.70,South,182,3.0,9.0,86,0.00,,OVC120,0.00,VWS V15.00,2014-04-02 21:44:00,
2014-04-02 16:49:00,67.8,63.8,29.70,SSE,159,3.0,9.0,87,0.00,,OVC120,0.00,VWS V15.00,2014-04-02 21:49:00,
2014-04-02 16:55:00,67.4,63.7,29.70,SSE,155,3.0,9.0,88,0.00,,OVC120,0.00,VWS V15.00,2014-04-02 21:55:00,
2014-04-02 17:00:00,67.0,63.7,29.70,South,180,1.0,4.0,89,0.00,,OVC120,0.00,VWS V15.00,2014-04-02 22:00:00,
2014-04-02 17:05:00,66.7,63.7,29.70,SSE,148,1.0,4.0,90,0.00,,OVC120,0.00,VWS V15.00,2014-04-02 22:05:00,
2014-04-02 17:10:00,66.6,63.9,29.70,South,184,3.0,4.0,91,0.00,,OVC120,0.00,VWS V15.00,2014-04-02 22:10:00,
2014-04-02 17:15:00,66.5,63.8,29.70,SSE,165,3.0,4.0,91,0.00,,OVC120,0.00,VWS V15.00,2014-04-02 22:15:00,
2014-04-02 17:20:00,66.4,63.7,29.70,SSE,161,4.0,6.0,91,0.00,,OVC120,0.00,VWS V15.00,2014-04-02 22:20:00,
2014-04-02 17:25:00,66.4,63.7,29.70,South,181,1.0,6.0,91,0.00,,OVC120,0.00,VWS V15.00,2014-04-02 22:25:00,
2014-04-02 17:30:00,66.3,63.6,29.70,South,177,2.0,3.0,91,0.00,,OVC120,0.00,VWS V15.00,2014-04-02 22:30:00,
2014-04-02 17:35:00,66.4,63.7,29.70,SSE,156,2.0,3.0,91,0.00,,OVC120,0.00,VWS V15.00,2014-04-02 22:35:00,
2014-04-02 17:40:00,66.4,63.7,29.70,SSE,158,1.0,3.0,91,0.00,,OVC120,0.00,VWS V15.00,2014-04-02 22:40:00,
2014-04-02 17:45:00,66.4,63.7,29.70,South,171,2.0,3.0,91,0.00,,OVC120,0.00,VWS V15.00,2014-04-02 22:45:00,
2014-04-02 17:50:00,66.3,63.6,29.70,SSE,153,1.0,3.0,91,0.00,,OVC120,0.00,VWS V15.00,2014-04-02 22:50:00,
2014-04-02 17:55:00,66.3,63.6,29.70,ESE,121,2.0,4.0,91,0.00,,OVC120,0.00,VWS V15.00,2014-04-02 22:55:00,
2014-04-02 18:00:00,66.3,63.6,29.70,SSE,157,4.0,4.0,91,0.00,,,0.00,VWS V15.00,2014-04-02 23:00:00,
2014-04-02 18:01:00,66.3,63.6,29.70,ESE,106,7.0,7.0,91,0.00,,OVC120,0.00,VWS V15.00,2014-04-02 23:01:00,
2014-04-02 18:06:00,66.2,63.5,29.70,SE,129,2.0,7.0,91,0.00,,OVC120,0.00,VWS V15.00,2014-04-02 23:06:00,
2014-04-02 18:11:00,66.1,63.7,29.70,SE,135,0.0,7.0,92,0.00,,OVC120,0.00,VWS V15.00,2014-04-02 23:11:00,
2014-04-02 18:16:00,66.0,63.6,29.70,South,181,2.0,7.0,92,0.00,,OVC120,0.00,VWS V15.00,2014-04-02 23:16:00,
2014-04-02 18:21:00,65.9,63.5,29.70,SE,124,1.0,7.0,92,0.00,,OVC120,0.00,VWS V15.00,2014-04-02 23:21:00,
2014-04-02 18:26:00,65.8,63.7,29.70,SSE,148,1.0,7.0,93,0.00,,OVC120,0.00,VWS V15.00,2014-04-02 23:26:00,
2014-04-02 18:30:00,65.8,63.7,29.70,SE,135,1.0,7.0,93,0.00,,,0.00,VWS V15.00,2014-04-02 23:30:00,
2014-04-02 18:31:00,65.7,63.6,29.70,SE,143,2.0,2.0,93,0.00,,OVC120,0.00,VWS V15.00,2014-04-02 23:31:00,
2014-04-02 18:36:00,65.6,63.5,29.70,SE,134,1.0,3.0,93,0.00,,OVC120,0.00,VWS V15.00,2014-04-02 23:36:00,
2014-04-02 18:41:00,65.6,63.5,29.70,SE,130,0.0,3.0,93,0.00,,OVC120,0.00,VWS V15.00,2014-04-02 23:41:00,
2014-04-02 18:46:00,65.5,63.7,29.70,ESE,121,1.0,3.0,94,0.00,,OVC120,0.00,VWS V15.00,2014-04-02 23:46:00,
2014-04-02 18:51:00,65.5,63.7,29.70,SE,132,1.0,3.0,94,0.00,,OVC120,0.00,VWS V15.00,2014-04-02 23:51:00,
2014-04-02 18:56:00,65.4,63.6,29.70,ESE,120,2.0,3.0,94,0.00,,OVC120,0.00,VWS V15.00,2014-04-02 23:56:00,
2014-04-02 19:00:00,65.4,63.6,29.70,ESE,117,2.0,3.0,94,0.00,,,0.00,VWS V15.00,2014-04-03 00:00:00,
2014-04-02 19:01:00,65.4,63.6,29.70,ESE,116,2.0,3.0,94,0.00,,OVC120,0.00,VWS V15.00,2014-04-03 00:01:00,
2014-04-02 19:07:00,65.3,63.5,29.70,ESE,123,1.0,3.0,94,0.00,,OVC120,0.00,VWS V15.00,2014-04-03 00:07:00,
2014-04-02 19:12:00,65.3,63.5,29.70,ESE,119,1.0,3.0,94,0.00,,OVC120,0.00,VWS V15.00,2014-04-03 00:12:00,
2014-04-02 19:17:00,65.2,63.7,29.70,ESE,119,1.0,3.0,95,0.00,,OVC120,0.00,VWS V15.00,2014-04-03 00:17:00,
2014-04-02 19:22:00,65.2,63.7,29.70,SE,126,1.0,6.0,95,0.00,,OVC120,0.00,VWS V15.00,2014-04-03 00:22:00,
2014-04-02 19:27:00,65.2,63.7,29.70,SE,127,0.0,6.0,95,0.00,,OVC120,0.00,VWS V15.00,2014-04-03 00:27:00,
2014-04-02 19:30:00,65.2,63.7,29.70,SE,131,2.0,6.0,95,0.00,,,0.00,VWS V15.00,2014-04-03 00:30:00,
2014-04-02 19:32:00,65.2,63.7,29.70,SE,138,2.0,3.0,95,0.00,,OVC120,0.00,VWS V15.00,2014-04-03 00:32:00,
2014-04-02 19:37:00,65.2,63.7,29.70,SE,130,1.0,4.0,95,0.00,,OVC120,0.00,VWS V15.00,2014-04-03 00:37:00,
2014-04-02 19:42:00,65.2,63.7,29.70,SE,128,2.0,4.0,95,0.00,,OVC120,0.00,VWS V15.00,2014-04-03 00:42:00,
2014-04-02 19:47:00,65.2,63.7,29.70,ESE,119,0.0,4.0,95,0.00,,OVC120,0.00,VWS V15.00,2014-04-03 00:47:00,
2014-04-02 19:52:00,65.1,63.6,29.70,SE,140,1.0,4.0,95,0.00,,OVC120,0.00,VWS V15.00,2014-04-03 00:52:00,
2014-04-02 19:57:00,65.1,63.6,29.70,SE,130,2.0,4.0,95,0.00,,OVC120,0.00,VWS V15.00,2014-04-03 00:57:00,
2014-04-02 20:00:00,65.1,63.6,29.70,SE,135,2.0,4.0,95,0.00,,,0.00,VWS V15.00,2014-04-03 01:00:00,
2014-04-02 20:02:00,65.1,63.9,29.70,ESE,112,1.0,4.0,96,0.00,,OVC120,0.00,VWS V15.00,2014-04-03 01:02:00,
2014-04-02 20:07:00,65.1,63.9,29.70,SE,142,0.0,4.0,96,0.00,,OVC120,0.00,VWS V15.00,2014-04-03 01:07:00,
2014-04-02 20:12:00,65.1,63.9,29.70,SSE,149,0.0,4.0,96,0.00,,OVC120,0.00,VWS V15.00,2014-04-03 01:12:00,
2014-04-02 20:18:00,65.1,63.9,29.70,SE,136,2.0,4.0,96,0.00,,OVC120,0.00,VWS V15.00,2014-04-03 01:18:00,
2014-04-02 20:23:00,65.1,63.9,29.70,ESE,109,2.0,4.0,96,0.00,,OVC120,0.00,VWS V15.00,2014-04-03 01:23:00,
2014-04-02 20:28:00,65.1,63.9,29.70,SE,127,1.0,4.0,96,0.00,,OVC120,0.00,VWS V15.00,2014-04-03 01:28:00,
2014-04-02 20:30:00,65.2,64.0,29.70,ESE,121,1.0,4.0,96,0.00,,CLR,0.00,VWS V15.00,2014-04-03 01:30:00,
2014-04-02 20:33:00,65.2,64.0,29.70,ESE,121,0.0,2.0,96,0.00,,OVC120,0.00,VWS V15.00,2014-04-03 01:33:00,
2014-04-02 20:38:00,65.2,64.0,29.70,ESE,111,0.0,2.0,96,0.00,,OVC120,0.00,VWS V15.00,2014-04-03 01:38:00,
2014-04-02 20:43:00,65.2,64.0,29.70,ESE,120,2.0,3.0,96,0.00,,OVC120,0.00,VWS V15.00,2014-04-03 01:43:00,
2014-04-02 20:48:00,65.2,64.0,29.70,SE,131,1.0,5.0,96,0.00,,OVC120,0.00,VWS V15.00,2014-04-03 01:48:00,
2014-04-02 20:53:00,65.1,63.9,29.70,ESE,118,2.0,5.0,96,0.00,,OVC120,0.00,VWS V15.00,2014-04-03 01:53:00,
2014-04-02 20:58:00,65.2,64.0,29.70,SE,130,1.0,5.0,96,0.00,,OVC120,0.00,VWS V15.00,2014-04-03 01:58:00,
2014-04-02 21:00:00,65.2,64.0,29.70,SE,130,1.0,5.0,96,0.00,,,0.00,VWS V15.00,2014-04-03 02:00:00,
2014-04-02 21:03:00,65.1,63.9,29.70,ESE,120,1.0,3.0,96,0.00,,OVC120,0.00,VWS V15.00,2014-04-03 02:03:00,
2014-04-02 21:08:00,65.1,63.9,29.70,ESE,110,3.0,4.0,96,0.00,,OVC120,0.00,VWS V15.00,2014-04-03 02:08:00,
2014-04-02 21:14:00,65.1,63.9,29.70,ESE,116,2.0,4.0,96,0.00,,OVC120,0.00,VWS V15.00,2014-04-03 02:14:00,
2014-04-02 21:19:00,65.0,63.8,29.70,SE,130,2.0,4.0,96,0.00,,OVC120,0.00,VWS V15.00,2014-04-03 02:19:00,
2014-04-02 21:24:00,65.0,63.8,29.70,ESE,123,0.0,4.0,96,0.00,,OVC120,0.00,VWS V15.00,2014-04-03 02:24:00,
2014-04-02 21:29:00,65.1,63.9,29.70,ESE,107,4.0,6.0,96,0.00,,OVC120,0.00,VWS V15.00,2014-04-03 02:29:00,
2014-04-02 21:30:00,65.1,63.9,29.70,ESE,113,3.0,5.0,96,0.00,,OVC042,0.00,VWS V15.00,2014-04-03 02:30:00,
2014-04-02 21:34:00,65.2,64.0,29.70,ESE,114,2.0,6.0,96,0.00,,OVC120,0.00,VWS V15.00,2014-04-03 02:34:00,
2014-04-02 21:39:00,65.3,64.1,29.70,SE,132,2.0,6.0,96,0.00,,OVC120,0.00,VWS V15.00,2014-04-03 02:39:00,
2014-04-02 21:44:00,65.3,64.1,29.70,SE,132,3.0,7.0,96,0.00,,OVC120,0.00,VWS V15.00,2014-04-03 02:44:00,
2014-04-02 21:49:00,65.3,64.1,29.70,SSE,152,0.0,7.0,96,0.00,,OVC120,0.00,VWS V15.00,2014-04-03 02:49:00,
2014-04-02 21:54:00,65.3,64.1,29.70,ESE,102,4.0,7.0,96,0.00,,OVC120,0.00,VWS V15.00,2014-04-03 02:54:00,
2014-04-02 21:59:00,65.3,64.1,29.70,ESE,116,2.0,2.0,96,0.00,,OVC120,0.00,VWS V15.00,2014-04-03 02:59:00,
2014-04-02 22:00:00,65.3,64.1,29.70,ESE,116,2.0,7.0,96,0.00,,OVC042,0.00,VWS V15.00,2014-04-03 03:00:00,
2014-04-02 22:04:00,65.2,64.0,29.70,ESE,117,2.0,2.0,96,0.00,,OVC120,0.00,VWS V15.00,2014-04-03 03:04:00,
2014-04-02 22:10:00,65.2,64.0,29.70,SE,134,1.0,4.0,96,0.00,,OVC120,0.00,VWS V15.00,2014-04-03 03:10:00,
2014-04-02 22:15:00,65.2,64.0,29.70,ESE,113,1.0,4.0,96,0.00,,OVC120,0.00,VWS V15.00,2014-04-03 03:15:00,
2014-04-02 22:20:00,65.2,64.0,29.70,ESE,109,0.0,4.0,96,0.00,,OVC120,0.00,VWS V15.00,2014-04-03 03:20:00,
2014-04-02 22:25:00,65.2,64.0,29.70,ESE,115,1.0,4.0,96,0.00,,OVC120,0.00,VWS V15.00,2014-04-03 03:25:00,
2014-04-02 22:30:00,65.2,64.0,29.70,ESE,115,2.0,2.0,96,0.00,,OVC120,0.00,VWS V15.00,2014-04-03 03:30:00,
2014-04-02 22:35:00,65.2,64.0,29.70,ESE,115,0.0,2.0,96,0.00,,OVC120,0.00,VWS V15.00,2014-04-03 03:35:00,
2014-04-02 22:40:00,65.1,63.9,29.70,ESE,115,0.0,2.0,96,0.00,,OVC120,0.00,VWS V15.00,2014-04-03 03:40:00,
2014-04-02 22:45:00,65.1,63.9,29.70,ESE,108,0.0,3.0,96,0.00,,OVC120,0.00,VWS V15.00,2014-04-03 03:45:00,
2014-04-02 22:50:00,65.0,63.8,29.70,SE,131,1.0,3.0,96,0.00,,OVC120,0.00,VWS V15.00,2014-04-03 03:50:00,
2014-04-02 22:55:00,65.1,63.9,29.70,ESE,105,2.0,3.0,96,0.00,,OVC120,0.00,VWS V15.00,2014-04-03 03:55:00,
2014-04-02 23:00:00,65.1,63.9,29.70,ESE,112,0.0,1.0,96,0.00,,OVC120,0.00,VWS V15.00,2014-04-03 04:00:00,
2014-04-02 23:01:00,65.1,63.9,29.70,ESE,112,0.0,1.0,96,0.00,,OVC120,0.00,VWS V15.00,2014-04-03 04:01:00,
2014-04-02 23:02:00,65.1,63.9,29.70,ESE,110,2.0,3.0,96,0.00,,OVC120,0.00,VWS V15.00,2014-04-03 04:02:00,
2014-04-02 23:04:00,65.2,64.0,29.70,ESE,107,0.0,3.0,96,0.00,,OVC120,0.00,VWS V15.00,2014-04-03 04:04:00,
2014-04-02 23:06:00,65.2,64.3,29.70,ESE,105,2.0,3.0,97,0.00,,OVC120,0.00,VWS V15.00,2014-04-03 04:06:00,
2014-04-02 23:11:00,65.3,64.1,29.70,ESE,107,0.0,3.0,96,0.00,,OVC120,0.00,VWS V15.00,2014-04-03 04:11:00,
2014-04-02 23:16:00,65.4,64.2,29.70,SE,135,2.0,3.0,96,0.00,,OVC120,0.00,VWS V15.00,2014-04-03 04:16:00,
2014-04-02 23:21:00,65.4,64.2,29.70,SE,135,0.0,3.0,96,0.00,,OVC120,0.00,VWS V15.00,2014-04-03 04:21:00,
2014-04-02 23:26:00,65.4,64.2,29.70,SE,134,1.0,3.0,96,0.00,,OVC120,0.00,VWS V15.00,2014-04-03 04:26:00,
2014-04-02 23:30:00,65.5,64.3,29.70,SE,134,0.0,3.0,96,0.00,,,0.00,VWS V15.00,2014-04-03 04:30:00,
2014-04-02 23:32:00,65.5,64.3,29.70,SE,136,1.0,2.0,96,0.00,,OVC120,0.00,VWS V15.00,2014-04-03 04:32:00,
2014-04-02 23:37:00,65.6,64.4,29.70,SE,132,2.0,3.0,96,0.00,,OVC120,0.00,VWS V15.00,2014-04-03 04:37:00,
2014-04-02 23:42:00,65.8,64.6,29.70,ESE,103,3.0,5.0,96,0.00,,OVC120,0.00,VWS V15.00,2014-04-03 04:42:00,
2014-04-02 23:47:00,65.9,64.7,29.70,SE,129,1.0,5.0,96,0.00,,OVC120,0.00,VWS V15.00,2014-04-03 04:47:00,
2014-04-02 23:52:00,66.0,64.5,29.70,SSE,153,2.0,5.0,95,0.00,,OVC120,0.00,VWS V15.00,2014-04-03 04:52:00,
2014-04-02 23:57:00,66.2,64.7,29.70,SSE,157,3.0,5.0,95,0.00,,OVC120,0.00,VWS V15.00,2014-04-03 04:57:00,